{"data":{"norad_id":54779,"epoch":"2026-09-20T21:44:32.625888Z","epoch_age_seconds":54234,"freshness":"FRESH","line1":"1 54779U 22175X   26263.90593317  .00001554  00000+0  57124-4 0  9992","line2":"2 54779  53.1587 217.8485 0001381  91.4549 268.6612 15.34392406209800","mean_motion":15.34392406,"eccentricity":0.0001381,"inclination_deg":53.1587,"raan_deg":217.8485,"arg_perigee_deg":91.4549,"mean_anomaly_deg":268.6612,"bstar":5.7124e-5,"rev_number":20980,"period_min":93.848222551748,"perigee_km":461.78108811432,"apogee_km":463.67053442279,"semimajor_km":6840.8628112686,"source":"CELESTRAK","updated_at":"2026-09-21T09:00:33.124322Z"}}